AGROMETEOROLOŠKI PORTAL

vinorodna pokrajina

Temelj dobrega kmetovanja

Pregled podatkov za lokacijo Čelje, meteorološka postaja 37797

Pregled senzorjev na lokaciji

ID Ime Zadnja
vrednost
Datum in čas
meritve
(lokalni čas)
Tip
senzorja
1815 Omočenost lista (1,5 m) (U) 0 U 4.2.2023 23:00 A730WET
5056 Padavine (mm) 0 mm 4.2.2023 23:00 Generic 0.2 mm
1814 Relativna zračna vlaga (2 m) (%RH) 49 %RH 4.2.2023 23:00 50YA
1813 Temperatura (2 m) (°C) 0,3 °C 4.2.2023 23:00 50YA

Pregled podatkov zadnjih 24 ur

Zap.
št.
Datum in čas
(lokalni čas)
Čelje
Omočenost
lista
(1,5
m)
Padavine Relativna
zračna
vlaga
(2
m)
Temperatura
(2
m)
1 4.2.2023 23:00 0 0 49,3 0,3
2 4.2.2023 22:30 0 0 48,4 0,7
3 4.2.2023 22:00 0 0 48,3 1
4 4.2.2023 21:30 0 0 48 1,2
5 4.2.2023 21:00 0 0 47,8 1,4
6 4.2.2023 20:30 0 0 46,9 1,9
7 4.2.2023 20:00 0 0 46,6 2,1
8 4.2.2023 19:30 0 0 46,2 2,4
9 4.2.2023 19:00 0 0 45,4 2,9
10 4.2.2023 18:30 0 0 43,7 3,5
11 4.2.2023 18:00 0 0 42,5 4,1
12 4.2.2023 17:30 0 0 41,9 4,7
13 4.2.2023 17:00 0 0 39,6 5,5
14 4.2.2023 16:30 0 0 37,3 6,5
15 4.2.2023 16:00 0 0 36 7,6
16 4.2.2023 15:30 0 0 33,7 8,6
17 4.2.2023 15:00 0 0 31,5 9,4
18 4.2.2023 14:30 0 0 31,7 9,5
19 4.2.2023 14:00 0 0 30,7 10,1
20 4.2.2023 13:30 0 0 28,8 10,4
21 4.2.2023 13:00 0 0 28,1 11,2
22 4.2.2023 12:30 0 0 27,8 10,8
23 4.2.2023 12:00 0 0 30,5 10,6
24 4.2.2023 11:30 0 0 34,7 10,2
25 4.2.2023 11:00 0 0 41,6 9,4
26 4.2.2023 10:30 0 0 51 8,2
27 4.2.2023 10:00 9 0 59,1 6,9
28 4.2.2023 09:30 10 0 90,9 3,1
29 4.2.2023 09:00 10 0 97,1 0,3
30 4.2.2023 08:30 10 0 97 -0,5
31 4.2.2023 08:00 10 0 96,7 -2
32 4.2.2023 07:30 10 0 96,8 -0,9
33 4.2.2023 07:00 10 0 96,8 -0,2
34 4.2.2023 06:30 10 0 96,6 0
35 4.2.2023 06:00 10 0 96,5 0
36 4.2.2023 05:30 10 0 96,5 0,7
37 4.2.2023 05:00 10 0 96,1 0,9
38 4.2.2023 04:30 10 0 95,9 1,2
39 4.2.2023 04:00 10 0 95,7 1,5
40 4.2.2023 03:30 10 0 95,6 1,9
41 4.2.2023 03:00 10 0 95 1,6
42 4.2.2023 02:30 10 0 94,1 1,8
43 4.2.2023 02:00 10 0 93,1 2,5
44 4.2.2023 01:30 10 0 92,4 2,7
45 4.2.2023 01:00 10 0 91,3 3,2
46 4.2.2023 00:30 10 0 90,5 3,4
47 4.2.2023 00:00 10 0 90,2 3,6
48 3.2.2023 23:30 9 0 90,2 3,7